DW5683 Weather Reports


time (UTC)temp
C
wind
direction
speed
KPH
gust
KPH
rain 1hr
cm
rain 24hr
cm
rain mn
cm
humidity
%
barometer
mb
20260903080048 15 0 0.0 0.0 0.00 0.00 0.00 75 1015.0
20260903074544 16 0 0.0 0.0 0.00 0.00 0.00 73 1015.0
20260903073049 16 0 0.0 0.0 0.00 0.00 0.00 72 1015.0
20260903071548 17 0 0.0 3.2 0.00 0.00 0.00 70 1015.1
20260903070041 17 0 0.0 3.2 0.00 0.00 0.00 69 1015.0
20260903064541 17 0 0.0 0.0 0.00 0.00 0.00 69 1014.9
20260903063044 17 0 0.0 0.0 0.00 0.00 0.00 68 1015.0
20260903061551 17 0 0.0 0.0 0.00 0.00 0.00 67 1014.9
20260903060053 17 0 0.0 0.0 0.00 0.00 0.00 66 1015.0
20260903054549 18 0 0.0 0.0 0.00 0.00 0.00 65 1015.1
20260903053100 18 0 0.0 0.0 0.00 0.00 0.00 63 1015.2
20260903051543 18 193 0.0 3.2 0.00 0.00 0.00 63 1015.0
20260903050049 18 0 0.0 0.0 0.00 0.00 0.00 64 1014.8
20260903044552 18 0 0.0 0.0 0.00 0.00 0.00 66 1014.9
20260903043041 18 0 0.0 0.0 0.00 0.00 0.00 69 1015.0
20260903041548 18 0 0.0 0.0 0.00 0.00 0.00 68 1014.8
20260903040047 20 0 0.0 0.0 0.00 0.00 0.00 65 1014.6
20260903034542 20 0 0.0 0.0 0.00 0.00 0.00 60 1014.4
20260903033101 20 0 0.0 4.8 0.00 0.00 0.00 58 1014.3
20260903031544 21 0 0.0 6.4 0.00 0.00 0.00 59 1014.1
20260903030044 21 192 0.0 6.4 0.00 0.00 0.00 58 1014.1
20260903024545 22 192 3.2 8.0 0.00 0.00 0.00 57 1014.1
20260903023042 22 198 0.0 8.0 0.00 0.00 0.00 55 1014.3
20260903021553 23 0 0.0 8.0 0.00 0.00 0.00 53 1014.4
20260903020043 23 198 1.6 9.7 0.00 0.00 0.00 52 1014.3
20260903014547 24 198 3.2 12.9 0.00 0.00 0.00 50 1014.4
20260903013041 25 196 4.8 12.9 0.00 0.00 0.00 50 1014.4
20260903011544 25 205 3.2 11.3 0.00 0.00 0.00 48 1014.4
20260903010048 25 192 6.4 16.1 0.00 0.00 0.00 48 1014.4
20260903004547 25 171 1.6 12.9 0.00 0.00 0.00 48 1014.5
20260903003041 25 186 4.8 20.9 0.00 0.00 0.00 46 1014.6
20260903001542 26 183 6.4 14.5 0.00 0.00 0.00 45 1014.7
20260903000053 26 198 3.2 12.9 0.00 0.00 0.00 46 1014.9
20260902234546 26 194 6.4 24.1 0.00 0.00 0.00 46 1014.9
20260902233044 26 0 1.6 16.1 0.00 0.00 0.00 46 1014.9
20260902231549 26 204 6.4 14.5 0.00 0.00 0.00 46 1015.0
20260902230043 26 194 4.8 14.5 0.00 0.00 0.00 46 1015.1
20260902224543 26 201 3.2 12.9 0.00 0.00 0.00 45 1015.4
20260902223043 26 225 3.2 14.5 0.00 0.00 0.00 46 1015.3
20260902221603 26 174 6.4 16.1 0.00 0.00 0.00 47 1015.4
20260902220054 26 198 6.4 14.5 0.00 0.00 0.00 47 1015.5
20260902214540 26 0 3.2 12.9 0.00 0.00 0.00 48 1015.8
20260902213040 25 242 6.4 17.7 0.00 0.00 0.00 51 1015.9
20260902211547 25 208 3.2 12.9 0.00 0.00 0.00 52 1015.9
20260902210050 25 205 4.8 12.9 0.00 0.00 0.00 52 1016.2
20260902204545 24 190 4.8 11.3 0.00 0.00 0.00 53 1016.1
20260902203047 24 187 0.0 9.7 0.00 0.00 0.00 52 1016.3
20260902201549 24 0 0.0 14.5 0.00 0.00 0.00 53 1016.4
20260902200052 24 163 3.2 11.3 0.00 0.00 0.00 54 1016.6
20260902194546 23 161 3.2 11.3 0.00 0.00 0.00 56 1016.6
20260902193042 23 0 1.6 11.3 0.00 0.00 0.00 58 1016.8
20260902191543 23 0 3.2 11.3 0.00 0.00 0.00 57 1017.0
20260902190050 23 158 3.2 12.9 0.00 0.00 0.00 58 1017.1
20260902184541 23 0 1.6 11.3 0.00 0.00 0.00 56 1017.1
20260902183053 23 153 3.2 11.3 0.00 0.00 0.00 55 1017.1
20260902181540 23 147 1.6 8.0 0.00 0.00 0.00 56 1017.1
20260902180055 24 147 3.2 9.7 0.00 0.00 0.00 56 1017.1
20260902174544 23 144 1.6 8.0 0.00 0.00 0.00 57 1017.1
20260902173048 23 144 1.6 8.0 0.00 0.00 0.00 59 1017.2
20260902171556 21 142 1.6 12.9 0.00 0.00 0.00 64 1017.0
20260902170042 21 0 0.0 6.4 0.00 0.00 0.00 64 1016.8
20260902164557 19 128 1.6 11.3 0.00 0.00 0.00 68 1016.7
20260902163046 20 132 1.6 8.0 0.00 0.00 0.00 67 1016.6
20260902161553 19 0 1.6 6.4 0.00 0.00 0.00 68 1016.8
20260902160049 18 0 1.6 8.0 0.00 0.00 0.00 70 1016.9
20260902154603 17 135 1.6 6.4 0.00 0.00 0.00 73 1017.0
20260902153046 16 0 0.0 0.0 0.00 0.00 0.00 76 1017.0
20260902151541 15 0 0.0 0.0 0.00 0.00 0.00 78 1016.9
20260902150048 15 0 0.0 0.0 0.00 0.00 0.00 79 1016.8
20260902144548 15 0 0.0 0.0 0.00 0.00 0.00 80 1016.7
20260902143041 14 0 0.0 0.0 0.00 0.00 0.00 81 1016.4
20260902141541 13 0 0.0 0.0 0.00 0.00 0.00 82 1016.5
20260902140042 13 0 0.0 0.0 0.00 0.00 0.00 83 1016.5
20260902134543 13 0 0.0 0.0 0.00 0.00 0.00 83 1016.3
20260902133058 13 0 0.0 0.0 0.00 0.00 0.00 83 1016.0
20260902131548 13 0 0.0 0.0 0.00 0.00 0.00 82 1015.9
20260902130042 13 0 0.0 0.0 0.00 0.00 0.00 82 1015.8
20260902124541 14 0 0.0 0.0 0.00 0.00 0.00 82 1015.8
20260902123040 14 0 0.0 0.0 0.00 0.00 0.00 82 1015.9
20260902121545 15 0 0.0 1.6 0.00 0.00 0.00 82 1015.8
20260902120041 15 0 0.0 0.0 0.00 0.00 0.00 82 1015.8
20260902114546 15 0 0.0 0.0 0.00 0.00 0.00 82 1015.8
20260902113045 15 135 0.0 4.8 0.00 0.00 0.00 82 1015.8
20260902111541 15 135 1.6 6.4 0.00 0.00 0.00 81 1015.8
20260902110048 15 0 1.6 4.8 0.00 0.00 0.00 81 1015.8
20260902104548 15 0 0.0 4.8 0.00 0.00 0.00 80 1015.9
20260902103046 15 136 0.0 4.8 0.00 0.00 0.00 80 1016.0
20260902101545 15 136 1.6 4.8 0.00 0.00 0.00 80 1016.1
20260902100049 15 136 1.6 4.8 0.00 0.00 0.00 80 1016.1
20260902094544 15 0 0.0 0.0 0.00 0.00 0.00 80 1016.1
20260902093107 15 0 0.0 3.2 0.00 0.00 0.00 80 1016.2
20260902091553 15 0 0.0 3.2 0.00 0.00 0.00 80 1016.2
20260902090049 15 0 1.6 4.8 0.00 0.00 0.00 80 1016.1
20260902084552 15 136 1.6 4.8 0.00 0.00 0.00 80 1016.1
20260902083052 15 136 1.6 4.8 0.00 0.00 0.00 79 1016.1
20260902081602 15 0 1.6 6.4 0.00 0.00 0.00 79 1016.1